Weather History for Port Angeles, WA

Change the Weather History Date:

Thursday, October 4, 2012

  Actual Average Record
Temperature  
Mean Temperature 50 °F -  
Max Temperature 63 °F 60 °F 70 °F (2001)
Min Temperature 39 °F 44 °F 36 °F (1985)
Degree Days  
Heating Degree Days 14    
Moisture  
Dew Point 33 °F    
Average Humidity 53    
Maximum Humidity 71    
Minimum Humidity 32    
Precipitation  
Precipitation 0.00 in - - ()
Sea Level Pressure  
Sea Level Pressure 30.31 in    
Wind  
Wind Speed 6 mph (South)    
Max Wind Speed 10 mph    
Max Gust Speed -    
Visibility 10 miles    
Events      
Averages and records for this station are not official NWS values.
T = Trace of Precipitation, MM = Missing Value Source: NWS Daily Summary

Daily Weather History Graph

Daily Weather History Graph

Search for Another Location

Airport:

Trip Planner

Search our weather history database for the weather conditions in past years. The results will help you decide how hot, cold, wet, or windy it might be!

Date:

Astronomy

Oct. 04, 2012 Rise Set
Actual Time 7:18 AM PDT 6:45 PM PDT
Civil Twilight 6:47 AM PDT 7:16 PM PDT
Nautical Twilight 6:11 AM PDT 7:52 PM PDT
Astronomical Twilight 5:34 AM PDT 8:29 PM PDT
Moon 9:04 PM PDT (10/4) 12:01 PM PDT (10/4)
Length of Visible Light 12h 29m
Length of Day
11h 27m
Waning Gibbous, 81% of the Moon is Illuminated
Oct 4
Waning Gibbous
Oct 8
Last Quarter
Oct 15
New
Oct 21
First Quarter
Oct 29
Full

Hourly Weather History & Observations

Time (PDT) Temp. Windchill Dew Point Humidity Pressure Visibility Wind Dir Wind Speed Gust Speed Precip Events Conditions
12:53 AM 45.0 °F 41.8 °F 30.9 °F 58% 30.32 in 10.0 mi SW 5.8 mph - N/A   Clear
1:53 AM 46.0 °F 42.5 °F 30.0 °F 54% 30.31 in 10.0 mi SW 6.9 mph - N/A   Clear
2:53 AM 46.0 °F 41.4 °F 30.0 °F 54% 30.30 in 10.0 mi SW 9.2 mph - N/A   Clear
3:53 AM 43.0 °F 41.3 °F 30.0 °F 60% 30.31 in 10.0 mi SW 3.5 mph - N/A   Clear
4:53 AM 39.0 °F 34.8 °F 30.0 °F 70% 30.31 in 10.0 mi SSE 5.8 mph - N/A   Clear
5:53 AM 43.0 °F 38.8 °F 30.9 °F 62% 30.32 in 10.0 mi SSE 6.9 mph - N/A   Clear
6:53 AM 41.0 °F 38.0 °F 30.9 °F 67% 30.32 in 10.0 mi SW 4.6 mph - N/A   Clear
7:53 AM 43.0 °F 38.8 °F 32.0 °F 65% 30.34 in 10.0 mi SW 6.9 mph - N/A   Clear
8:53 AM 50.0 °F - 37.0 °F 61% 30.33 in 10.0 mi Calm Calm - N/A   Clear
9:53 AM 57.0 °F - 36.0 °F 45% 30.34 in 10.0 mi East 8.1 mph - N/A   Clear
10:53 AM 57.9 °F - 34.0 °F 41% 30.34 in 10.0 mi East 9.2 mph - N/A   Clear
11:53 AM 57.9 °F - 36.0 °F 44% 30.34 in 10.0 mi NE 6.9 mph - N/A   Clear
12:53 PM 59.0 °F - 35.1 °F 41% 30.33 in 10.0 mi East 8.1 mph - N/A   Clear
1:53 PM 61.0 °F - 30.9 °F 32% 30.32 in 10.0 mi ESE 5.8 mph - N/A   Clear
2:53 PM 60.8 °F - 33.8 °F 36% 30.31 in 10.0 mi NE 4.6 mph - N/A   Clear
3:53 PM 61.0 °F - 34.0 °F 36% 30.30 in 10.0 mi NE 4.6 mph - N/A   Clear
4:53 PM 62.1 °F - 34.0 °F 35% 30.29 in 10.0 mi Variable 3.5 mph - N/A   Clear
5:53 PM 59.0 °F - 35.1 °F 41% 30.28 in 10.0 mi Calm Calm - N/A   Clear
6:53 PM 54.0 °F - 37.0 °F 53% 30.27 in 10.0 mi Calm Calm - N/A   Clear
7:53 PM 46.9 °F - 37.0 °F 68% 30.27 in 10.0 mi Calm Calm - N/A   Clear
8:53 PM 43.0 °F 40.3 °F 34.0 °F 71% 30.28 in 10.0 mi SSW 4.6 mph - N/A   Clear
9:53 PM 44.1 °F 41.5 °F 33.1 °F 65% 30.28 in 10.0 mi SW 4.6 mph - N/A   Clear
10:53 PM 48.9 °F - 30.9 °F 50% 30.29 in 10.0 mi WSW 10.4 mph - N/A   Clear
11:53 PM 45.0 °F 40.6 °F 30.9 °F 58% 30.29 in 10.0 mi SW 8.1 mph - N/A   Clear